Theta_e
313 312 311 310 311 311 312 312 312 312 312 312 313 310 309 310 312 312 311 312 311 310 310 309 307 308 308 311 312 312 313 313 312 313 313 314 316 315 316 316 316 317 319 322 328
314 314 314 313 313 313 313 312 312 311 311 311 312 312 312 310 311 313 311 312 312 309 309 309 308 309 309 309 310 312 312 312 312 313 313 313 313 313 313 314 315 316 317 320 325
313 312 312 312 312 312 311 312 311 312 312 312 312 312 312 311 311 311 314 313 311 309 309 308 307 308 311 308 309 310 312 311 312 311 312 312 312 312 313 314 314 316 318 318 331
312 311 310 310 310 310 310 311 311 311 311 310 310 311 311 312 315 317 313 313 309 309 309 308 308 311 313 311 308 310 310 310 310 310 312 312 312 313 313 315 315 316 316 316 317
311 310 310 310 309 308 308 309 309 309 310 310 311 311 310 311 313 313 313 313 309 309 309 309 308 310 314 313 309 310 312 311 311 311 312 312 313 314 313 314 316 315 316 316 317
310 310 310 310 309 308 307 308 308 309 310 312 312 311 310 312 314 312 312 313 311 309 309 310 308 311 313 314 314 313 313 314 314 313 311 313 314 312 316 316 316 315 316 318 318
310 310 309 309 309 309 307 307 308 312 313 312 311 311 310 313 315 312 315 313 313 310 310 310 309 311 313 314 313 313 315 316 316 315 315 313 315 315 317 316 316 316 317 319 324
310 310 309 307 309 309 308 307 309 314 312 311 311 312 311 315 315 314 315 314 311 311 311 310 309 310 311 312 314 316 315 317 317 315 313 314 318 318 317 315 316 317 318 318 319
309 310 309 307 308 308 308 307 314 315 315 312 311 311 313 313 314 313 313 315 313 312 311 310 309 310 313 315 316 315 317 316 317 315 315 315 318 319 318 316 317 318 318 318 319
310 310 309 307 307 307 306 309 314 316 313 311 312 311 313 314 317 314 313 315 312 312 311 311 314 316 314 316 316 316 316 316 317 317 317 318 318 319 317 316 317 318 318 318 318
308 308 309 307 306 306 306 314 314 314 314 316 316 313 315 316 318 318 313 316 315 315 317 314 316 316 316 316 315 315 316 316 317 317 317 319 318 319 318 317 317 316 317 317 316
308 309 309 308 307 305 309 314 315 315 315 315 316 315 316 316 316 317 314 316 317 317 315 314 316 315 315 314 315 315 316 317 317 317 317 319 319 318 318 318 318 316 317 317 316
308 308 309 308 307 306 314 312 315 314 315 316 315 316 316 316 317 317 315 315 316 316 316 317 316 316 315 315 315 316 317 317 317 317 318 318 319 319 318 318 320 319 318 318 317
306 307 308 307 307 307 306 310 314 315 319 317 317 318 317 317 318 318 315 315 315 316 315 316 316 316 316 316 316 317 317 317 318 319 320 317 319 320 318 320 322 321 321 320 320
305 306 307 307 305 306 306 314 313 315 323 320 319 318 317 318 318 319 316 315 316 315 316 317 317 317 317 317 317 318 318 318 319 320 319 318 319 319 320 322 323 321 319 318 319
305 306 307 307 305 306 307 308 313 320 323 323 319 319 319 319 318 316 314 314 314 316 316 316 316 316 317 317 317 318 317 316 317 318 320 319 319 319 320 322 322 319 316 315 315
305 305 307 307 305 306 310 310 319 323 320 324 321 320 319 319 319 317 318 315 316 316 317 317 317 317 316 317 320 319 320 320 320 320 320 321 320 320 322 320 322 318 315 314 314
305 305 305 304 303 305 307 316 322 320 321 324 320 320 321 319 319 317 318 318 315 316 317 318 318 317 318 318 320 321 321 321 321 321 320 323 324 324 318 317 317 315 314 313 312
306 303 304 303 305 306 308 321 318 320 321 322 321 319 320 319 319 319 318 318 317 316 318 318 318 320 320 321 321 321 322 319 323 322 324 322 323 318 317 316 314 313 313 312 311
307 307 305 312 309 307 313 318 318 320 323 320 320 321 321 320 319 319 318 318 317 315 317 318 320 320 320 320 320 321 319 323 322 324 324 322 323 322 320 318 315 315 313 311 310
308 306 305 314 309 310 316 317 318 318 319 323 322 321 321 321 322 322 320 320 319 316 316 318 319 320 319 321 321 321 322 321 322 322 324 323 321 318 321 318 316 314 311 310 309
306 307 307 312 313 314 316 317 317 317 317 318 320 321 321 320 321 323 322 321 317 318 317 318 320 321 321 317 317 320 322 323 324 325 323 322 322 314 315 315 314 312 310 309 309
306 306 307 310 317 318 316 317 317 317 319 320 320 318 318 320 322 319 320 317 318 319 321 320 321 324 323 319 319 320 320 321 322 323 325 325 323 314 313 313 312 311 309 309 309
307 308 309 311 314 313 314 316 317 317 319 318 319 318 319 320 318 320 320 316 317 319 318 320 320 323 325 320 320 321 320 321 322 326 323 323 322 317 315 315 313 311 309 308 309
306 307 310 313 313 312 313 314 316 318 316 317 318 318 319 320 317 318 318 316 316 315 315 319 322 319 317 318 317 317 318 319 321 321 323 320 321 321 318 316 313 312 309 309 309
306 308 309 309 311 312 313 315 315 316 315 317 318 317 315 317 316 318 317 317 317 316 318 316 319 317 318 316 317 318 317 317 318 318 319 319 319 319 315 314 312 311 309 309 309
307 307 308 308 310 312 313 313 313 314 313 313 316 315 314 315 313 313 312 312 314 316 317 319 318 319 317 316 317 318 317 317 317 317 318 319 319 315 314 313 312 310 308 308 306
Wind_Speed
16 16 16 16 16 15 15 16 16 18 18 17 18 18 17 18 20 22 23 15 11 14 7 9 14 14 15 9 8 8 4 7 7 9 6 4 5 3 3 10 12 13 12 13 13
18 19 19 19 19 19 18 18 18 17 18 20 19 19 19 19 21 25 14 14 13 13 21 15 16 16 7 8 6 6 5 9 4 7 6 5 5 8 4 9 10 14 15 13 12
19 19 20 21 22 21 21 20 20 21 20 19 20 19 19 18 20 4 2 7 15 13 20 17 14 12 5 6 7 6 5 4 5 11 10 11 11 5 7 9 16 16 11 8 9
21 21 21 22 22 21 21 22 22 22 23 22 21 20 16 13 6 3 2 2 13 16 21 16 15 9 6 8 8 4 8 7 3 8 7 8 5 7 11 14 17 16 19 19 15
20 21 21 21 21 22 22 22 22 25 25 25 23 19 14 9 20 13 9 2 13 19 22 17 18 9 8 7 9 6 6 8 14 12 15 10 19 10 14 18 18 19 22 20 17
21 21 22 22 22 22 24 24 25 26 29 26 21 16 11 9 10 10 9 10 10 19 22 19 12 12 5 6 10 8 11 12 8 14 12 10 6 10 16 16 18 15 20 15 11
21 22 22 22 22 23 24 25 27 28 22 18 14 11 14 22 10 9 8 13 11 16 19 19 10 9 6 6 6 4 4 5 9 6 6 13 4 9 18 7 15 14 15 10 10
22 22 22 22 22 25 26 25 27 19 12 9 8 9 12 5 17 20 7 15 17 15 12 9 17 7 3 2 1 2 1 5 4 3 0 8 5 8 8 7 14 15 14 14 11
22 22 22 23 24 25 26 25 20 14 10 4 6 8 11 7 14 14 19 17 17 15 11 7 14 6 3 2 2 1 5 5 5 1 3 5 8 10 9 7 12 16 16 16 16
21 23 23 23 23 25 25 20 10 8 1 3 3 4 10 2 2 8 19 13 14 15 10 7 6 5 4 6 7 5 3 3 5 2 5 12 13 13 9 6 14 18 17 16 18
22 21 22 23 22 23 22 6 3 3 8 11 7 10 5 5 3 6 22 20 12 10 7 9 7 11 11 9 5 4 5 9 10 7 5 9 9 11 11 6 10 16 16 10 12
23 24 24 23 22 24 10 1 3 6 12 19 23 28 25 13 5 7 20 14 10 10 6 5 11 10 8 8 7 6 6 11 10 5 8 6 11 6 4 4 10 6 3 7 8
25 25 26 27 25 16 6 10 6 10 6 8 14 13 15 19 10 12 23 13 11 11 11 10 1 11 12 9 8 8 9 9 11 1 7 5 5 3 1 5 10 10 5 1 3
27 24 26 28 16 10 18 8 7 5 5 4 6 5 12 11 6 13 22 18 5 15 8 6 10 9 7 10 11 9 12 15 13 5 6 2 6 3 1 3 9 12 11 8 16
27 24 25 25 29 20 6 6 8 1 5 4 4 6 15 15 12 13 22 15 12 9 8 7 6 12 11 15 13 9 7 10 12 10 4 6 5 3 2 3 8 12 14 16 17
29 27 26 28 28 16 14 12 1 3 8 4 7 9 10 9 7 9 16 11 7 7 3 13 3 6 6 6 13 4 4 4 4 4 6 7 7 6 4 5 9 10 11 13 16
30 32 30 29 29 10 3 10 4 6 3 7 6 9 14 12 9 9 15 16 9 8 11 9 13 12 7 7 5 7 6 4 5 5 7 6 5 6 5 2 13 12 12 13 14
33 36 37 33 26 19 15 4 11 8 8 4 4 9 12 10 13 10 15 14 11 5 4 9 6 13 9 11 7 8 6 4 6 6 5 4 6 3 3 8 15 14 14 13 13
34 36 35 28 15 23 15 11 10 9 5 4 3 5 9 10 7 15 14 17 15 16 8 6 4 2 4 3 6 5 5 2 3 2 3 3 3 4 7 10 13 14 11 10 10
33 35 22 14 9 26 9 17 10 6 0 1 8 6 10 10 12 12 14 7 9 15 13 6 2 2 1 2 7 2 9 3 3 5 8 7 8 6 12 12 12 11 11 9 7
24 14 9 14 11 11 11 11 17 16 8 4 4 4 4 5 8 4 3 2 1 7 14 9 5 3 1 6 9 4 4 2 2 2 7 10 6 2 12 14 13 10 7 5 5
10 4 10 10 5 6 11 9 8 11 11 10 6 5 6 5 4 8 13 5 8 6 10 4 5 7 6 2 2 2 6 10 7 9 1 2 5 3 3 11 12 9 5 3 3
8 10 3 8 4 7 9 12 19 16 13 4 9 5 3 5 5 3 3 4 6 3 6 6 1 6 3 3 3 5 5 5 3 2 9 7 3 4 7 9 8 6 2 1 3
6 4 5 9 11 4 5 9 17 7 3 2 2 2 3 4 5 4 5 2 3 2 7 8 2 5 7 2 2 4 9 10 10 6 9 8 8 7 9 11 10 6 3 4 5
3 4 5 4 2 8 5 6 8 7 1 2 3 2 1 3 3 1 2 2 4 4 3 3 6 5 3 5 2 2 6 8 11 12 9 10 12 11 14 13 14 8 4 4 5
4 4 4 10 10 4 4 3 5 7 3 3 4 9 4 5 7 10 7 3 2 4 2 1 4 4 3 4 6 8 10 12 13 14 12 15 15 10 3 11 11 5 2 3 7
9 13 9 6 6 6 2 3 7 5 3 6 8 5 2 9 8 9 8 7 4 3 2 1 5 4 9 1 4 10 15 16 13 11 14 14 15 8 7 9 6 2 0 4 11
Wind_Direction
345 341 337 332 333 330 325 322 319 317 313 312 311 309 309 308 302 295 283 285 266 237 218 185 177 178 171 167 156 148 155 215 231 191 239 210 222 184 230 282 280 275 284 302 302
339 338 333 329 324 320 320 319 316 311 309 309 307 307 308 309 302 291 287 261 234 219 205 193 169 165 153 160 171 182 200 218 220 213 258 271 281 304 291 295 280 278 267 281 285
331 330 327 325 321 318 314 312 311 309 306 304 303 306 306 311 311 260 294 260 205 202 187 193 180 160 148 166 187 181 231 207 239 230 257 285 297 274 261 270 266 263 268 295 288
326 327 327 325 322 317 313 312 308 305 303 301 298 297 296 299 282 194 46 81 187 179 178 181 171 162 164 184 193 205 236 217 246 229 226 242 250 259 244 250 260 263 276 288 276
324 324 325 326 325 322 318 312 308 305 301 297 294 287 282 264 253 263 252 228 184 188 184 176 172 173 196 191 169 228 239 217 240 245 234 254 253 262 262 262 254 273 283 280 268
324 325 324 325 325 324 320 315 311 308 302 294 285 271 253 244 256 237 230 205 191 180 181 186 197 194 178 193 200 205 233 256 269 247 231 218 259 186 260 263 268 271 281 281 228
326 325 324 323 323 322 320 318 316 310 305 290 272 243 244 244 240 232 202 203 195 190 190 195 201 195 172 171 234 231 265 282 227 218 230 216 233 229 256 283 270 268 267 267 204
324 324 323 322 322 322 322 322 318 314 313 298 252 212 252 245 227 223 202 194 190 193 193 197 203 201 239 296 167 255 245 269 155 199 140 188 285 309 317 249 260 263 256 252 252
326 326 325 324 322 322 321 325 317 316 309 266 182 217 269 250 238 222 213 193 179 184 172 151 178 197 182 202 203 78 236 238 289 341 127 229 305 289 307 311 273 260 254 252 247
329 329 326 323 322 320 322 323 307 312 24 140 240 231 250 248 269 212 185 183 161 163 163 176 162 183 169 189 217 195 217 223 245 106 308 290 274 279 303 278 269 261 254 244 246
324 323 320 319 322 317 321 331 343 269 236 226 247 239 267 303 219 208 189 165 139 164 182 188 185 203 194 195 216 225 250 268 265 278 296 294 278 284 325 315 299 259 249 262 247
321 322 321 318 321 317 312 321 224 298 292 269 254 250 241 244 307 206 185 168 178 186 164 169 220 202 200 196 198 207 254 266 279 269 208 304 300 315 359 10 342 277 224 255 237
320 319 320 319 319 311 291 312 241 304 263 281 231 227 232 213 221 206 178 173 181 191 193 212 129 184 183 194 207 228 239 250 249 251 241 273 268 252 137 0 355 20 28 346 103
324 320 318 320 317 298 310 233 286 296 282 244 230 227 172 158 204 195 191 181 184 206 172 225 237 223 205 218 210 248 227 240 248 237 258 256 258 234 123 2 32 37 54 74 105
316 318 315 320 303 299 298 197 339 116 294 160 169 164 167 176 143 182 191 189 200 175 184 202 210 208 220 235 201 231 217 231 227 209 208 183 238 201 175 116 70 71 66 75 91
313 313 309 312 301 313 264 228 228 223 247 192 145 171 167 203 165 138 173 193 192 183 213 230 241 203 195 202 189 142 138 106 121 167 225 201 232 201 213 125 130 103 83 84 88
308 307 301 299 280 282 292 168 199 220 317 183 177 174 186 186 180 163 179 192 192 183 214 222 230 245 242 245 196 185 183 198 202 204 240 163 201 254 134 187 157 136 116 103 96
311 309 305 294 281 248 234 207 220 219 228 295 174 172 189 169 209 167 171 190 210 169 158 204 198 208 201 219 209 193 210 220 234 232 240 166 218 144 81 115 129 125 120 106 92
320 320 315 311 275 203 176 213 204 212 227 216 153 185 206 198 187 192 193 200 201 199 206 187 223 143 194 176 180 158 205 92 126 126 266 219 138 128 140 126 129 127 118 97 85
330 329 320 334 260 182 203 224 222 221 179 178 224 199 201 192 186 192 184 196 204 195 199 185 164 186 125 135 53 233 141 163 228 230 241 219 238 216 184 170 151 145 130 110 88
334 324 322 326 170 185 213 224 239 258 272 214 239 209 211 175 184 124 339 74 159 168 202 188 215 158 161 210 205 150 179 94 152 204 247 255 231 25 194 172 159 142 120 100 84
318 291 322 142 201 210 231 233 249 268 274 243 221 214 185 168 129 142 218 5 341 161 166 163 185 206 187 94 354 201 206 204 218 208 220 269 263 34 139 151 151 139 126 104 61
298 284 305 194 230 229 245 252 247 271 271 256 208 176 192 179 159 153 115 127 4 231 151 159 218 209 204 204 168 209 189 203 159 131 210 237 222 130 129 139 156 154 144 246 305
304 305 299 209 260 311 323 264 249 252 278 128 110 67 129 110 36 129 149 121 76 89 108 123 200 192 237 131 113 186 194 198 211 210 226 223 234 187 190 188 186 175 207 255 266
258 247 273 306 334 333 291 308 307 256 72 159 119 335 48 108 53 284 234 145 78 16 74 143 204 177 147 117 130 215 191 192 220 242 238 265 238 250 212 204 195 191 222 270 286
258 261 314 299 292 312 308 252 300 268 224 224 171 156 187 152 173 194 172 184 125 72 95 73 142 154 163 204 225 252 252 249 247 249 251 256 259 248 215 178 175 197 283 303 321
268 264 279 279 304 296 321 344 325 336 340 24 137 108 236 145 142 103 94 91 102 119 119 123 145 167 252 348 276 259 243 248 241 233 238 246 260 165 165 170 173 175 320 327 331